[[{"header":{"parameterUnit":"m.s-1","parameterCategory":1,"la1":30.2991,"la2":30.254,"lo1":-89.0895,"lo2":-89.0444,"dy":0.0017,"dx":0.0017,"nx":28,"ny":28,"refTime":"2025-03-25T21:00:00:Z","depth":0,"parameterNumber":2,"parameterNumberName":"U-component_of_WINDS"},"data":[0,0,0,0,0,0,0,0,0,0,0,0,0,0,0,0,0,0,0,0,0,0,0,0,0,0,0,0,0,0,0,0,0,0,0,0,0,0,0,0,0,0,0,0,0,0,0,0,0,0,0,0,0,0,0,0,0,0,-0.3153,-0.3153,0,-0.3148,-0.3147,-0.3147,-0.311,-0.3109,-0.3108,-0.3108,-0.3103,-0.3103,-0.3104,0,0,0,0,0,0,0,0,0,0,0,0,0,-0.3134,-0.3135,-0.3153,-0.3153,-0.3153,-0.3148,-0.3147,-0.3147,-0.311,-0.3109,-0.3108,-0.3107,-0.3103,-0.3103,-0.3104,0,0,0,0,0,0,0,0,0,0,0,0,0,-0.3137,-0.3135,-0.3153,-0.3134,-0.3132,-0.3148,-0.3147,-0.3147,-0.3111,-0.3109,-0.3108,-0.3107,-0.3102,-0.3103,-0.3104,-0.3138,0,0,-0.3108,-0.3108,0,0,0,0,0,0,0,0,-0.3137,-0.3138,-0.3137,-0.3135,-0.3133,-0.3128,-0.3139,-0.3144,-0.3111,-0.3119,-0.3108,-0.3106,-0.3112,-0.3113,-0.3114,-0.3138,-0.3138,-0.3108,-0.3108,-0.3109,-0.3109,0,0,0,0,0,0,0,-0.3137,-0.3138,-0.3151,-0.3137,-0.3135,-0.3126,-0.3125,-0.314,-0.3123,-0.3118,-0.3115,-0.3115,-0.3111,-0.3114,-0.3114,-0.3138,-0.3108,-0.3109,-0.3109,-0.311,-0.3189,-0.319,0,0,0,0,0,0,-0.3139,-0.3138,-0.3151,-0.3151,-0.3132,-0.3128,-0.3126,-0.3131,-0.3123,-0.312,-0.3116,-0.3113,-0.3112,-0.3113,-0.3114,-0.3152,-0.3109,-0.311,-0.311,-0.3187,-0.3189,-0.3191,0,0,0,0,0,0,-0.3139,-0.3141,-0.3152,-0.3144,-0.3144,-0.3129,-0.3135,-0.3132,-0.3134,-0.3122,-0.3119,-0.3122,-0.3111,-0.3112,-0.3132,-0.3152,-0.311,-0.3111,-0.3186,-0.3188,-0.319,-0.3231,0,0,0,0,0,0,-0.3138,-0.3141,-0.3153,-0.3144,-0.3145,-0.317,-0.3136,-0.3133,-0.3136,-0.3132,-0.3126,-0.3124,-0.311,-0.3131,-0.3133,-0.3153,-0.3112,-0.3184,-0.3187,-0.3189,-0.3227,-0.3234,-0.3239,0,0,0,0,0,-0.3138,-0.3165,-0.3154,-0.3155,-0.316,-0.3171,-0.3171,-0.3155,-0.3138,-0.315,-0.3142,-0.3124,-0.315,-0.3133,-0.3136,-0.3156,-0.3183,-0.3186,-0.3189,-0.3225,-0.3233,-0.3239,0,0,0,0,0,0,-0.3176,-0.3163,-0.3151,-0.3175,-0.3175,-0.3165,-0.3179,-0.3164,-0.3168,-0.3165,-0.3145,-0.3144,-0.3167,-0.3163,-0.3145,-0.3188,-0.3163,-0.3167,-0.3189,-0.3197,-0.3203,-0.3202,-0.3113,0,0,0,0,0,-0.3188,-0.3197,-0.3186,-0.3209,-0.3209,-0.3194,-0.3199,-0.3186,-0.3185,-0.3184,-0.3178,-0.3177,-0.3185,-0.3191,-0.3198,-0.3227,-0.3225,-0.3242,-0.3248,-0.3253,-0.3257,-0.3272,-0.3279,-0.3202,-0.3202,-0.3202,0,0,-0.3211,-0.3205,-0.3212,-0.3216,-0.3214,-0.3225,-0.3194,-0.3207,-0.3215,-0.3186,-0.3204,-0.32,-0.3198,-0.3223,-0.3234,-0.3221,-0.3278,-0.3258,-0.3262,-0.3262,-0.3276,-0.3284,-0.329,-0.3204,-0.3203,-0.3203,0,0,-0.3259,-0.3256,-0.3274,-0.3273,-0.327,-0.326,-0.3265,-0.3258,-0.3253,-0.3272,-0.325,-0.326,-0.3274,-0.3274,-0.3276,-0.3325,-0.3308,-0.3328,-0.3359,-0.3375,-0.3381,-0.3386,-0.3403,-0.341,-0.3332,-0.3332,-0.3332,0,-0.3288,-0.3303,-0.3286,-0.33,-0.3302,-0.3277,-0.3296,-0.3296,-0.3296,-0.3298,-0.3284,-0.3302,-0.3299,-0.3323,-0.3335,-0.3338,-0.3343,-0.3328,-0.3381,-0.3386,-0.3391,-0.3407,-0.3414,-0.3334,-0.3334,-0.3334,-0.3334,0,-0.3339,-0.335,-0.3366,-0.3366,-0.337,-0.3387,-0.3373,-0.338,-0.3368,-0.336,-0.3379,-0.3375,-0.338,-0.3386,-0.3374,-0.3409,-0.3401,-0.3385,-0.3359,-0.3401,-0.3416,-0.3422,-0.3338,-0.3337,-0.3336,-0.3336,0,0,-0.3409,-0.3401,-0.3406,-0.3406,-0.3402,-0.341,-0.3427,-0.3432,-0.3438,-0.3439,-0.3452,-0.3465,-0.345,-0.3452,-0.3441,-0.3454,-0.3494,-0.3436,-0.3435,-0.3446,-0.3532,-0.3543,-0.3551,-0.3483,-0.3484,-0.3485,-0.3532,0,-0.3455,-0.3481,-0.3466,-0.3494,-0.3504,-0.3482,-0.3496,-0.3495,-0.3489,-0.3497,-0.349,-0.35,-0.3479,-0.348,-0.3493,-0.3486,-0.351,-0.3483,-0.3495,-0.3496,-0.3495,-0.3559,-0.3571,-0.3615,-0.3537,-0.3538,-0.3539,0,-0.3511,-0.3514,-0.3543,-0.3537,-0.3541,-0.3554,-0.3558,-0.3566,-0.3565,-0.3559,-0.3562,-0.3548,-0.3564,-0.354,-0.3562,-0.3543,-0.3548,-0.3546,-0.3547,-0.3546,-0.3519,-0.3559,-0.3629,-0.3635,-0.3548,-0.3547,-0.3547,0,-0.3558,-0.357,-0.3589,-0.359,-0.3584,-0.3593,-0.3591,-0.3589,-0.3593,-0.3597,-0.36,-0.3606,-0.3609,-0.3615,-0.3603,-0.3586,-0.3626,-0.3601,-0.3622,-0.3623,-0.3631,-0.363,-0.3701,-0.3636,-0.3635,-0.3635,-0.3635,0,-0.361,-0.3628,-0.361,-0.3622,-0.3642,-0.3626,-0.3647,-0.3643,-0.3641,-0.3652,-0.3634,-0.3644,-0.3628,-0.3638,-0.3628,-0.3648,-0.365,-0.3646,-0.3643,-0.3647,-0.3647,-0.3649,-0.3645,-0.3637,-0.3637,-0.3636,-0.3636,0,-0.3665,-0.3654,-0.3673,-0.3666,-0.3665,-0.368,-0.3674,-0.3685,-0.3678,-0.3692,-0.3695,-0.3684,-0.3694,-0.3683,-0.3693,-0.3687,-0.3713,-0.3706,-0.3713,-0.371,-0.3732,-0.373,-0.3805,-0.3814,-0.3744,-0.3745,-0.3746,0,-0.3698,-0.3712,-0.3706,-0.3712,-0.3711,-0.3721,-0.3725,-0.3711,-0.3716,-0.3717,-0.3728,-0.3736,-0.3742,-0.376,-0.3753,-0.376,-0.3753,-0.3779,-0.3754,-0.3758,-0.3753,-0.3752,-0.3753,-0.3784,-0.3785,-0.3785,-0.3786,0,-0.3758,-0.3752,-0.3758,-0.3763,-0.3769,-0.3772,-0.3775,-0.3781,-0.3766,-0.3773,-0.3783,-0.3788,-0.3797,-0.3806,-0.3812,-0.3811,-0.3796,-0.3794,-0.3799,-0.3803,-0.3806,-0.3804,-0.3726,-0.3792,-0.3791,-0.3791,-0.3791,-0.379,-0.3802,-0.3813,-0.3811,-0.382,-0.382,-0.3822,-0.3832,-0.3827,-0.3835,-0.3841,-0.3833,-0.3845,-0.3845,-0.3851,-0.3852,-0.3862,-0.3851,-0.3858,-0.386,-0.3862,-0.3865,-0.3805,-0.3863,-0.3863,-0.3863,-0.3862,-0.3862,0,-0.386,-0.3858,-0.3866,-0.3869,-0.3876,-0.3862,-0.3864,-0.3871,-0.3882,-0.3883,-0.3889,-0.3901,-0.391,-0.3904,-0.3912,-0.3921,-0.3915,-0.3924,-0.3922,-0.3922,-0.3875,-0.3869,-0.3929,-0.3929,-0.3929,-0.3929,-0.3929,-0.3929,-0.3891,-0.3909,-0.3903,-0.3921,-0.3919,-0.3931,-0.3933,-0.3936,-0.3936,-0.395,-0.3958,-0.3954,-0.3953,-0.396,-0.3968,-0.3967,-0.397,-0.3981,-0.3977,-0.3932,-0.3926,-0.3919,-0.3914,-0.3982,-0.3982,-0.4024,-0.4024,-0.4024]},{"header":{"parameterUnit":"m.s-1","parameterCategory":1,"la1":30.2991,"la2":30.254,"lo1":-89.0895,"lo2":-89.0444,"dy":0.0017,"dx":0.0017,"nx":28,"ny":28,"refTime":"2025-03-25T21:00:00:Z","depth":0,"parameterNumber":3,"parameterNumberName":"V-component_of_WINDS"},"data":[0,0,0,0,0,0,0,0,0,0,0,0,0,0,0,0,0,0,0,0,0,0,0,0,0,0,0,0,0,0,0,0,0,0,0,0,0,0,0,0,0,0,0,0,0,0,0,0,0,0,0,0,0,0,0,0,0,0,3.015,3.0151,0,3.0246,3.0247,3.0248,3.0285,3.0285,3.0284,3.0284,3.0378,3.0381,3.0383,0,0,0,0,0,0,0,0,0,0,0,0,0,2.9991,2.9994,3.015,3.0151,3.0152,3.0246,3.0247,3.0248,3.0285,3.0285,3.0284,3.0284,3.0377,3.038,3.0384,0,0,0,0,0,0,0,0,0,0,0,0,0,3.0071,2.9995,3.015,3.0182,3.0186,3.0245,3.0247,3.0249,3.0285,3.0285,3.0284,3.0284,3.0376,3.038,3.0384,3.0417,0,0,3.0397,3.0398,0,0,0,0,0,0,0,0,3.0066,3.0077,3.0176,3.018,3.0184,3.0253,3.0226,3.0305,3.0285,3.0247,3.0284,3.0284,3.0336,3.0344,3.0362,3.0422,3.0426,3.0397,3.0399,3.0401,3.0402,0,0,0,0,0,0,0,3.0061,3.0073,3.0188,3.0177,3.0182,3.0189,3.02,3.0241,3.0293,3.025,3.0253,3.0264,3.0339,3.0358,3.0365,3.0427,3.0397,3.04,3.0403,3.0405,3.0514,3.0514,0,0,0,0,0,0,3.0051,3.0068,3.0185,3.0191,3.0123,3.0192,3.0205,3.0231,3.0292,3.0301,3.0265,3.0266,3.0352,3.036,3.0368,3.0409,3.0401,3.0405,3.0407,3.0513,3.0514,3.0514,0,0,0,0,0,0,3.0047,3.0061,3.0181,3.013,3.0146,3.0196,3.0225,3.0233,3.0253,3.0303,3.0312,3.0276,3.0352,3.0363,3.0404,3.0413,3.0407,3.0411,3.0513,3.0513,3.0514,3.0492,0,0,0,0,0,0,3.0042,3.0059,3.0075,3.013,3.0148,3.0217,3.0226,3.0236,3.0261,3.0263,3.0316,3.0324,3.0352,3.0398,3.0408,3.0419,3.0414,3.0512,3.0513,3.0514,3.0492,3.0492,3.0492,0,0,0,0,0,3.0037,3.0064,3.0075,3.0089,3.0169,3.0218,3.0228,3.0261,3.0262,3.0276,3.0307,3.0323,3.041,3.0402,3.0414,3.0425,3.0512,3.0513,3.0514,3.0492,3.0492,3.0492,0,0,0,0,0,0,3.0008,3.0072,3.0085,3.0132,3.0169,3.0224,3.0243,3.026,3.0296,3.0297,3.0334,3.0346,3.0383,3.0409,3.0398,3.0459,3.0462,3.0465,3.0441,3.0441,3.0441,3.0434,3.0417,0,0,0,0,0,3.0007,3.0043,3.0097,3.0133,3.0151,3.0194,3.0216,3.0238,3.0277,3.0293,3.0327,3.0363,3.0399,3.0421,3.0457,3.0495,3.0506,3.0509,3.0508,3.0508,3.0511,3.053,3.0531,3.0517,3.0517,3.0517,0,0,3.0006,3.0045,3.0066,3.0128,3.016,3.0194,3.0207,3.0243,3.0268,3.0298,3.034,3.0365,3.0408,3.0447,3.0466,3.0469,3.0516,3.0509,3.0508,3.0511,3.0531,3.0532,3.0533,3.0518,3.0518,3.0518,0,0,3.0021,3.0055,3.0088,3.0119,3.0166,3.0193,3.0201,3.0252,3.0271,3.0313,3.0335,3.0364,3.0425,3.0453,3.0476,3.0497,3.0511,3.0507,3.0505,3.0523,3.0525,3.0526,3.0531,3.0533,3.0509,3.0509,3.0509,0,3.0013,3.0068,3.0102,3.0137,3.0162,3.019,3.0222,3.0249,3.0305,3.032,3.0323,3.0398,3.0428,3.0473,3.0478,3.0496,3.0504,3.0502,3.0522,3.0523,3.0525,3.0531,3.0533,3.0508,3.0508,3.0508,3.0508,0,3.0054,3.0091,3.0111,3.0165,3.0192,3.0225,3.0262,3.0284,3.0302,3.0328,3.0369,3.0406,3.0448,3.046,3.0479,3.0507,3.0507,3.0515,3.0519,3.0525,3.0531,3.0533,3.0507,3.0507,3.0507,3.0508,0,0,3.0056,3.0126,3.0133,3.0156,3.0208,3.0236,3.0268,3.031,3.0328,3.0364,3.039,3.0439,3.0446,3.0471,3.0492,3.0508,3.052,3.0514,3.0516,3.0513,3.055,3.0544,3.0546,3.0529,3.053,3.053,3.0546,0,3.0077,3.0138,3.0168,3.0215,3.0248,3.0273,3.0301,3.0334,3.0358,3.0388,3.0414,3.0447,3.0455,3.047,3.0487,3.0515,3.0527,3.0514,3.0552,3.0553,3.0541,3.055,3.0544,3.0557,3.0549,3.055,3.055,0,3.0111,3.0147,3.0197,3.0242,3.0257,3.0282,3.0321,3.0349,3.0386,3.0402,3.0428,3.0448,3.048,3.0481,3.0523,3.0513,3.053,3.0545,3.0547,3.0552,3.0552,3.0554,3.0562,3.0564,3.0554,3.0554,3.0554,0,3.0105,3.0166,3.0203,3.0222,3.0277,3.0293,3.0316,3.0352,3.0374,3.0407,3.0422,3.0457,3.0477,3.0503,3.0531,3.0529,3.0569,3.0573,3.0582,3.0581,3.059,3.0589,3.0601,3.0601,3.0601,3.0601,3.0601,0,3.0125,3.0154,3.0201,3.0224,3.0256,3.0289,3.0319,3.0343,3.0375,3.0401,3.0424,3.0448,3.0483,3.051,3.0532,3.0562,3.0571,3.0583,3.0589,3.0581,3.058,3.0593,3.0593,3.0602,3.0602,3.0602,3.0601,0,3.0125,3.0157,3.0199,3.0247,3.0259,3.028,3.032,3.0341,3.0365,3.0398,3.0407,3.0445,3.0477,3.0507,3.0551,3.0565,3.0596,3.0603,3.0584,3.0587,3.0593,3.0592,3.0614,3.0618,3.0616,3.0616,3.0616,0,3.0135,3.0158,3.0207,3.0227,3.025,3.0281,3.0303,3.0335,3.0357,3.0398,3.0414,3.0449,3.0478,3.0528,3.0558,3.0591,3.0598,3.0604,3.0603,3.0594,3.0597,3.0595,3.0597,3.0603,3.0603,3.0603,3.0603,0,3.015,3.0164,3.0196,3.0233,3.0259,3.0289,3.032,3.0334,3.0371,3.0394,3.0428,3.0451,3.0494,3.0527,3.0563,3.0584,3.0599,3.0602,3.0606,3.0599,3.0587,3.0592,3.0582,3.0602,3.0602,3.0602,3.0602,3.0602,3.0154,3.0175,3.0212,3.0246,3.0272,3.03,3.0322,3.0348,3.0378,3.0417,3.0433,3.0467,3.0499,3.0548,3.0569,3.0594,3.0597,3.0603,3.0604,3.0605,3.0603,3.0582,3.0601,3.0601,3.0601,3.0601,3.0601,0,3.0169,3.0193,3.0224,3.0267,3.0292,3.0305,3.0339,3.0359,3.0389,3.0419,3.0447,3.0484,3.0516,3.0547,3.0579,3.0593,3.0601,3.0601,3.06,3.0604,3.0599,3.0592,3.0594,3.0594,3.0594,3.0594,3.0594,3.0594,3.0179,3.0214,3.0232,3.0279,3.0303,3.0337,3.0355,3.0379,3.0403,3.0444,3.0471,3.0491,3.0521,3.0555,3.0584,3.0592,3.0602,3.06,3.061,3.0604,3.0605,3.0605,3.0599,3.0602,3.0602,3.0613,3.0613,3.0613]}]]